COSMOS 2268

Satellite information

Favourite Embed

Satellite Type and Status

PAYLOADIN ORBIT

Key statistics

Satellite COSMOS 2268 at a glance.

Uptime

11585

Days in orbit

Revolutions

≈ 12.6

Per day

Orbit

LEO

Low Earth Orbit

Inclination

82.6

Latest

Satellite identification and parameters

Extended collection of information and parameters for COSMOS 2268.

Object identification

Identified? True

Debris? False

Object name: COSMOS 2268

International designator: 1994-011A

Object number (NORAD): 22999

Object ID (CCSDS): 22999

Country: COMMONWEALTH OF INDEPENDENT STATES (CIS)

Current information (Y/N): Y

RCS size: MEDIUM

Orbital parameters

Period: 114.175 minutes

Inclination: 82.5728 deg

SMA: 7796.046 km

Apoapsis: 1425.889 km

Periapsis: 1409.934 km

RAAN: 126.1395 deg

Eccentricy: 0.0010233

Argument of periapsis: 3.63 deg

Mean anomaly: 58.7755 deg

Mean motion: 12.61220834 rev/day

Mean motion (dot): 0.00000049 rev/day2

B* drag term: 0.00021676 1/REarth

Two-line elements (TLE)

Creation date: Oct. 31, 2025, 6:26 p.m.

Reference frame: TEME

Reference center: EARTH

Epoch: Oct. 31, 2025, 2:07 p.m. UTC

TLE line 0: 0 COSMOS 2268

TLE line 1: 1 22999U 94011A 25304.58834139 .00000049 00000-0 21676-3 0 9999

TLE line 2: 2 22999 82.5728 126.1395 0010233 3.6300 58.7755 12.61220834459940

Live tracking on map

Real-time ground track for satellite COSMOS 2268.

In-orbit conjunctions

There are no conjunctions computed for COSMOS 2268, at the moment. Check back to stay up to date, as we update our databases every day.

Go to all conjunctions

Associated space launch

Second generation store-dump military communications satellites

COSMOS 2268 was lifted into orbit during the mission ‘Tsiklon-3 | Strela-3 101 to 106’, on board a Tsiklon-3 space rocket.

The launch took place on Feb. 12, 1994, 8:54 a.m. from 32/1.

For more information about the launch, click the button.

Launch to space Tsiklon-3 | Strela-3 101 to 106
Tsiklon-3 | Strela-3 101 to 106

Agency: N/A

Status: Launch Successful

Launch date: Feb. 12, 1994, 8:54 a.m. UTC

Rocket: Tsiklon-3

Launch pad: 32/1

Location: Plesetsk Cosmodrome, Russian Federation

...

Latest news about this satellite

There are no fresh news available about this satellite. Check back as we update our databases every day.


Newsletter sign-up

Weekly statistics, charts and insights to help you stay on top of the space industry.